Vorticity
nan nan nan nan nan nan nan nan nan nan nan nan nan nan nan nan nan nan nan nan nan nan nan nan nan nan nan nan nan nan nan nan
nan 12 12 12 13 18 16 11 8 6 6 5 7 9 7 7 11 10 6 5 8 8 10 11 7 9 10 8 8 7 7 nan
nan 10 15 17 14 15 14 12 9 5 5 5 9 11 10 10 9 11 11 12 9 13 14 9 7 8 10 9 5 3 9 nan
nan 7 11 17 18 14 13 12 10 9 6 4 5 6 10 12 10 11 12 16 15 15 15 10 8 8 10 9 8 5 6 nan
nan 8 9 15 23 17 13 13 10 10 7 7 5 3 6 9 10 12 12 12 15 14 11 10 8 8 11 8 7 7 6 nan
nan 9 9 17 26 19 14 12 9 7 7 7 5 5 8 11 9 10 9 8 8 10 11 8 7 10 12 10 7 6 5 nan
nan 7 7 16 22 17 13 12 10 8 8 8 7 5 6 7 8 7 9 6 9 8 7 8 8 10 10 9 10 8 7 nan
nan 8 7 10 16 17 13 10 10 10 9 9 8 8 8 5 6 7 8 8 9 10 7 6 7 9 9 10 10 9 8 nan
nan 10 8 7 14 17 15 10 10 11 10 8 8 6 6 10 9 8 7 10 13 11 7 7 8 8 8 7 8 11 9 nan
nan 11 10 10 14 20 18 11 11 11 10 9 9 7 7 9 9 7 8 9 10 12 10 8 8 8 8 6 8 10 9 nan
nan 7 10 12 18 25 19 12 12 13 11 7 9 10 8 8 10 9 5 6 9 10 9 9 10 8 8 7 9 11 7 nan
nan 6 8 8 19 24 17 13 13 12 10 8 8 9 9 8 9 10 10 10 10 8 7 9 12 11 7 8 9 10 9 nan
nan 9 4 8 13 23 19 11 12 13 11 9 8 7 7 8 9 10 11 11 12 13 13 14 11 10 15 9 8 9 9 nan
nan 8 7 9 8 23 22 13 11 10 11 10 8 7 7 8 9 9 10 11 12 14 14 14 19 19 14 11 9 10 9 nan
nan 6 8 8 9 9 20 19 13 10 11 12 8 8 7 9 10 9 10 10 9 10 13 14 15 18 15 16 16 16 13 nan
nan 7 7 6 8 9 15 20 16 11 11 11 10 9 8 9 10 9 10 10 9 9 9 11 12 13 20 17 15 13 12 nan
nan 8 7 6 9 10 10 20 18 12 11 11 9 9 9 9 9 10 9 10 10 10 10 10 9 11 18 21 18 8 9 nan
nan 8 8 10 9 11 11 10 19 19 11 12 10 8 9 10 9 10 9 8 10 8 10 10 11 17 15 12 14 12 11 nan
nan nan nan nan nan nan nan nan nan nan nan nan nan nan nan nan nan nan nan nan nan nan nan nan nan nan nan nan nan nan nan nan
CAPE
0 0 0 0 0 0 14 563 573 623 485 150 7 7 5 5 8 8 9 38 41 64 70 1 0 0 0 0 0 0 0 0
0 0 0 0 0 0 182 489 522 456 212 63 5 5 5 7 15 10 16 8 39 65 5 1 0 0 1 2 0 0 0 0
0 0 0 0 0 114 289 482 293 562 407 234 127 10 8 2 8 12 10 10 4 24 20 0 0 0 0 0 0 0 0 0
0 0 0 0 0 83 300 423 196 525 485 260 159 23 26 67 22 9 4 1 10 1 1 0 0 0 0 0 0 0 0 1
0 0 0 0 0 124 337 301 221 258 318 249 137 56 5 27 47 4 10 3 1 1 1 1 0 0 0 0 0 0 0 0
0 0 0 0 0 85 291 265 122 16 66 148 222 4 3 154 89 10 36 28 3 3 1 1 0 0 0 0 0 0 2 1
0 0 0 0 3 13 98 194 17 0 14 50 94 10 4 77 84 32 65 24 5 6 1 1 0 0 0 0 0 0 0 0
0 0 0 0 0 1 1 35 2 3 1 1 0 12 73 77 49 108 11 49 41 5 5 2 0 0 0 0 0 0 0 0
0 0 0 0 0 2 1 2 2 2 1 2 9 48 54 99 71 91 40 10 14 15 5 4 1 0 0 0 0 0 0 0
0 0 0 0 0 0 0 7 7 4 4 7 7 2 0 0 0 1 53 34 70 15 3 5 7 0 0 0 0 0 0 0
0 0 0 0 0 0 0 2 9 4 2 9 7 11 2 0 0 0 0 0 0 14 29 6 1 0 0 0 0 0 0 0
0 0 0 0 1 5 2 4 11 5 10 17 7 8 3 3 5 10 28 23 32 29 16 6 3 1 0 0 0 0 0 0
0 0 0 0 0 19 4 3 2 2 10 8 3 10 0 0 5 8 22 19 17 13 4 1 6 3 2 0 1 0 0 0
0 0 0 0 0 0 10 3 2 0 3 13 4 10 0 0 7 0 11 10 3 0 1 1 1 8 1 1 0 1 1 1
0 0 0 0 0 0 8 4 1 2 7 11 17 7 1 1 1 0 7 3 0 0 0 0 1 1 1 1 2 1 1 3
0 1 0 0 1 0 1 11 5 5 6 13 15 6 2 1 0 2 2 1 2 1 1 1 1 0 0 0 0 0 0 0
9 1 0 0 0 2 3 2 6 4 6 12 11 5 4 2 1 1 2 1 1 0 0 0 1 1 1 1 0 0 0 0
0 0 1 0 0 3 6 5 7 1 3 7 4 4 4 2 2 1 2 0 0 0 0 0 0 0 1 0 0 0 0 0
0 0 0 0 0 1 5 3 2 5 2 2 2 3 4 2 1 0 0 0 0 0 0 0 0 0 0 0 0 0 0 0